Wind_Speed
41 42 53 57 58 42 42 36 33 31 31 37 34 32 28 26 28 27 27 27 26 25 20 22 22 22 23 23 22 20 20 19 19 18 17 17 15 16 16 16 16 16 16 16
40 47 49 45 50 46 36 32 30 29 33 36 36 36 32 30 30 29 28 27 26 23 25 25 25 24 24 22 22 22 21 22 21 19 19 19 19 19 18 18 17 17 17 18
44 31 41 42 46 49 41 34 31 31 32 32 35 38 39 36 31 33 31 27 25 26 24 25 27 24 23 23 22 21 21 21 21 20 21 20 20 19 19 18 19 20 21 20
36 30 31 41 51 51 46 44 30 29 31 31 35 15 43 40 36 35 34 32 30 29 27 27 27 26 25 23 21 21 22 22 22 22 22 21 20 21 21 21 22 22 22 22
29 33 25 45 55 55 41 31 22 28 30 29 35 24 35 41 45 41 36 32 28 27 29 26 27 25 25 24 23 22 22 23 22 23 22 22 22 22 22 23 23 23 23 22
31 28 29 38 44 50 24 22 21 18 22 18 41 37 31 44 45 42 40 38 33 31 30 29 29 28 28 27 26 24 23 22 22 23 23 25 25 25 25 25 25 25 24 23
32 33 39 30 37 45 32 20 6 4 5 13 32 28 41 23 37 39 37 38 37 35 35 32 30 29 28 27 27 26 25 24 24 25 26 27 27 27 26 24 26 26 25 23
28 17 43 37 46 53 52 42 13 8 9 15 15 19 32 40 19 29 34 33 39 40 36 34 32 32 31 30 29 29 27 26 26 27 27 28 28 27 26 25 25 25 23 21
31 23 26 34 41 46 50 46 36 5 7 12 16 35 6 38 35 19 29 36 32 38 39 36 35 34 34 33 32 30 30 29 28 28 28 30 28 26 24 23 23 21 19 17
15 12 25 19 23 37 30 51 29 22 4 4 8 27 24 34 33 42 39 25 35 31 39 39 38 37 36 34 33 33 32 31 30 29 29 30 27 25 23 22 20 18 17 16
20 10 24 30 26 51 37 33 30 26 25 5 2 9 22 34 38 27 37 33 31 34 31 32 32 33 34 36 36 34 31 30 29 29 28 28 23 24 23 22 19 19 17 16
22 10 30 34 18 29 43 37 38 28 19 16 5 18 7 17 24 33 35 33 33 29 28 32 31 31 33 33 32 31 29 28 28 27 26 26 25 25 23 22 21 20 18 17
32 13 20 14 21 23 36 39 39 42 29 36 16 11 17 13 23 32 32 32 34 38 37 38 35 33 31 30 28 28 28 27 27 26 26 26 25 24 23 23 22 20 18 19
32 18 25 24 35 39 36 45 44 41 37 35 40 28 17 13 9 11 23 31 32 36 35 33 32 31 31 30 29 28 27 26 25 25 25 25 24 24 24 23 22 21 20 21
41 32 24 24 24 18 38 33 45 42 42 30 37 29 34 35 26 23 25 29 28 20 22 26 28 30 29 29 29 27 25 25 26 26 26 26 26 25 25 24 24 23 23 24
34 33 38 19 23 28 26 39 40 42 44 45 48 49 44 37 33 32 19 13 14 15 16 18 24 27 28 26 26 26 25 26 27 28 28 27 26 27 27 26 26 27 27 27
40 33 23 29 24 24 26 42 41 43 45 48 52 49 49 44 38 41 41 36 33 30 22 21 21 22 23 24 25 26 26 28 29 30 30 30 30 30 29 28 29 29 29 29
43 28 30 21 17 3 32 33 43 44 41 40 47 44 44 43 41 36 29 28 24 20 19 17 17 18 21 22 23 27 30 30 31 33 34 34 33 32 32 32 32 31 31 31
36 36 30 10 14 17 22 27 31 47 44 36 31 32 38 43 43 42 39 36 32 28 27 25 22 21 23 25 24 24 28 32 35 36 37 36 36 35 34 34 34 34 34 33
25 31 35 21 11 12 15 30 31 28 43 39 32 28 25 26 35 35 32 32 30 29 24 26 29 29 29 28 28 30 32 33 35 37 38 39 39 38 38 38 37 36 35 35
28 24 28 26 18 25 22 21 21 27 31 22 38 38 35 35 35 30 20 19 21 25 27 28 30 32 31 31 30 32 35 37 36 38 41 42 42 42 42 40 38 37 37 36
41 23 20 26 25 20 16 16 29 28 26 12 10 17 16 17 25 26 27 27 32 35 35 36 37 38 35 33 33 37 38 36 37 42 44 45 45 44 43 42 40 38 37 37
34 45 45 32 32 3 15 30 27 25 23 21 18 12 17 18 16 10 16 18 20 23 25 27 31 35 37 37 39 40 39 37 40 42 45 47 47 46 44 43 42 40 39 41
31 34 29 34 39 42 37 22 20 22 18 16 15 18 16 15 18 19 20 21 19 20 24 27 32 33 32 31 36 39 36 38 40 41 44 46 47 47 46 45 43 44 45 43
31 32 37 41 37 26 36 36 29 30 33 34 28 24 24 26 28 27 26 27 29 35 36 33 34 36 38 38 37 35 33 37 39 41 43 46 47 48 48 48 48 48 43 30
24 27 34 38 34 34 26 26 34 36 36 33 31 32 35 34 29 28 30 35 38 33 29 30 32 32 30 31 33 34 34 35 37 40 43 45 48 49 51 51 50 42 30 25
Wind_Direction
207 208 213 218 220 214 209 207 228 234 225 222 223 227 228 228 226 222 216 213 214 219 215 215 216 213 214 215 216 217 222 228 232 233 238 243 244 245 247 254 258 262 269 277
209 219 222 218 219 210 204 207 213 229 222 224 224 228 225 229 228 226 223 218 214 211 217 218 215 217 215 215 216 220 220 224 232 235 237 241 246 249 253 257 265 269 271 273
208 227 216 211 210 211 204 203 203 215 216 219 224 230 226 226 228 227 226 222 222 219 225 225 223 221 222 217 214 214 219 224 229 232 236 241 248 255 261 265 265 267 270 276
210 217 216 215 215 207 208 207 202 224 227 219 220 245 229 223 226 224 222 226 223 222 221 222 224 222 221 220 219 217 220 226 233 235 240 244 246 248 252 255 260 267 272 275
204 199 197 214 218 209 217 194 208 219 232 223 222 227 234 225 227 223 222 222 224 226 229 229 227 223 223 223 224 222 226 228 232 238 243 245 246 249 253 258 260 263 267 272
210 201 204 225 222 215 202 204 200 217 239 230 228 222 237 230 230 231 230 230 229 231 231 229 228 225 226 228 227 228 230 233 236 241 243 249 253 254 255 257 259 261 265 269
207 198 208 204 211 201 195 174 149 218 223 239 228 228 230 236 235 235 238 237 235 234 234 233 234 232 230 231 231 232 236 239 241 243 247 252 254 257 258 260 259 259 263 268
192 202 206 202 206 202 198 188 176 176 197 215 221 229 223 236 241 226 234 235 231 236 236 235 234 236 235 234 236 240 244 245 245 244 245 248 249 253 257 258 254 253 258 261
196 209 219 216 213 206 195 201 188 284 195 221 228 242 253 234 225 226 228 228 235 233 232 236 236 238 238 239 242 245 246 247 246 246 246 247 249 251 253 251 248 248 250 250
183 179 197 193 201 200 194 199 215 232 163 218 230 235 233 239 221 229 233 233 228 235 229 231 234 237 240 243 244 244 245 246 244 243 243 247 249 250 250 248 246 244 242 239
170 198 181 183 192 196 187 200 217 225 241 185 183 247 243 239 241 237 230 232 236 231 228 232 235 238 239 239 242 243 242 241 240 241 241 243 242 243 243 242 242 237 235 243
171 201 179 191 195 208 205 215 214 217 215 231 251 251 280 225 217 224 233 234 231 226 233 236 236 237 237 238 238 239 239 237 236 234 233 235 233 234 235 235 231 231 237 245
187 202 163 182 207 202 207 214 223 226 234 236 227 231 231 257 232 216 216 224 231 236 237 237 240 240 238 236 235 235 234 231 228 228 228 227 229 230 230 229 232 235 242 250
200 200 199 199 211 206 206 213 220 223 225 233 240 242 228 232 265 251 235 230 231 233 235 238 241 241 239 235 231 229 227 226 225 225 226 227 228 227 228 230 234 239 247 256
205 211 202 222 212 220 219 226 226 231 229 228 240 244 239 238 253 281 256 237 233 245 242 240 240 238 235 231 228 224 224 228 229 227 228 229 230 232 234 237 239 246 255 262
203 215 219 223 236 228 238 233 241 238 242 244 245 246 243 241 247 242 221 226 244 261 266 251 238 231 229 230 229 228 231 233 232 233 233 235 239 239 240 243 246 251 257 264
206 209 207 223 242 241 229 229 231 236 240 243 242 248 247 246 246 242 252 265 273 278 273 256 248 238 233 232 235 238 239 240 239 238 239 240 240 241 244 247 251 254 260 268
204 203 209 220 222 197 247 236 232 237 242 242 250 253 253 252 252 250 250 251 257 250 241 248 248 246 237 234 237 239 240 241 242 242 242 243 243 244 248 250 253 258 265 270
210 219 223 212 208 248 236 226 232 233 250 255 255 249 252 254 254 253 252 254 253 245 250 252 249 243 240 238 245 249 247 244 243 243 244 245 246 248 250 252 256 260 265 269
205 215 214 208 207 230 251 230 234 248 266 249 256 257 254 250 254 245 248 252 252 254 250 250 248 243 241 240 242 248 251 252 252 250 248 247 248 250 252 253 255 260 265 268
184 192 204 212 223 243 250 250 236 225 248 264 259 262 258 255 257 259 250 249 241 240 245 244 243 246 249 249 251 253 255 255 255 251 248 248 249 250 251 253 256 259 263 267
192 192 198 210 225 248 213 197 206 236 237 256 260 277 274 249 244 244 240 242 244 247 252 253 248 247 249 249 250 252 254 257 256 251 249 249 249 251 252 254 256 259 262 265
197 215 217 220 225 189 225 236 236 244 256 255 269 257 244 244 256 236 215 222 242 243 247 251 252 252 251 247 245 251 255 258 254 252 250 249 249 250 252 253 255 257 258 263
207 216 217 227 236 235 235 250 243 235 236 270 273 256 255 251 258 260 254 253 239 255 272 263 258 256 255 252 249 248 253 256 254 252 250 250 249 250 251 252 253 255 260 267
220 223 222 228 232 230 233 238 233 244 262 273 273 262 252 270 273 267 266 253 263 278 278 268 259 257 259 257 254 251 250 253 252 249 247 247 247 248 249 250 253 257 264 280
215 223 226 231 238 243 243 237 242 248 255 258 261 263 261 268 265 259 260 265 279 273 266 262 258 257 256 258 255 249 248 251 251 248 247 246 246 246 248 251 253 261 280 295
Height
3094 3099 3096 3101 3112 3123 3129 3133 3138 3142 3146 3148 3149 3151 3154 3155 3156 3158 3160 3161 3164 3168 3173 3173 3176 3178 3181 3183 3186 3189 3190 3192 3194 3196 3197 3198 3199 3199 3199 3200 3200 3200 3199 3199
3091 3085 3097 3108 3114 3121 3127 3129 3132 3140 3142 3145 3146 3145 3150 3149 3152 3155 3157 3158 3161 3164 3167 3170 3172 3174 3177 3181 3183 3185 3187 3188 3190 3192 3193 3193 3194 3194 3195 3195 3196 3196 3196 3195
3081 3085 3096 3105 3112 3116 3120 3123 3128 3135 3138 3141 3143 3141 3140 3144 3146 3150 3152 3154 3158 3160 3164 3167 3169 3171 3174 3177 3179 3181 3183 3185 3186 3188 3188 3189 3190 3192 3192 3193 3192 3192 3191 3191
3084 3086 3091 3101 3105 3111 3115 3119 3126 3133 3136 3134 3139 3132 3132 3137 3140 3143 3146 3148 3152 3155 3158 3161 3164 3167 3170 3172 3174 3176 3178 3180 3182 3184 3184 3185 3187 3187 3188 3188 3188 3188 3188 3187
3077 3080 3086 3092 3091 3104 3111 3119 3121 3130 3134 3134 3132 3134 3124 3131 3130 3135 3140 3144 3148 3151 3154 3157 3159 3163 3165 3167 3170 3172 3174 3175 3177 3178 3180 3181 3182 3183 3183 3183 3184 3183 3182 3182
3073 3079 3086 3086 3097 3104 3112 3111 3123 3128 3131 3128 3123 3125 3117 3118 3123 3132 3136 3139 3143 3147 3149 3152 3154 3156 3159 3162 3164 3167 3169 3171 3172 3174 3175 3175 3176 3177 3177 3178 3178 3178 3179 3178
3069 3073 3076 3081 3092 3099 3102 3112 3122 3130 3131 3119 3117 3118 3107 3113 3120 3126 3130 3135 3139 3141 3143 3147 3150 3152 3154 3156 3159 3161 3164 3166 3167 3169 3170 3170 3171 3171 3172 3173 3173 3173 3173 3173
3061 3072 3067 3070 3074 3078 3092 3101 3104 3109 3112 3106 3110 3100 3097 3112 3116 3119 3122 3127 3131 3134 3138 3141 3144 3147 3149 3151 3153 3155 3158 3160 3161 3163 3164 3164 3165 3166 3167 3167 3167 3168 3168 3168
3054 3062 3063 3067 3072 3079 3090 3094 3099 3103 3100 3105 3101 3100 3101 3103 3110 3114 3116 3120 3124 3127 3131 3135 3137 3140 3143 3145 3147 3149 3150 3153 3154 3155 3157 3158 3160 3161 3161 3161 3162 3163 3164 3164
3053 3060 3062 3064 3074 3079 3079 3091 3100 3100 3100 3103 3093 3091 3092 3098 3101 3107 3112 3115 3118 3121 3124 3127 3129 3132 3135 3138 3140 3141 3143 3145 3147 3149 3150 3151 3153 3153 3154 3155 3157 3159 3160 3161
3048 3052 3061 3063 3061 3058 3075 3082 3089 3094 3092 3090 3095 3085 3089 3094 3099 3103 3107 3111 3113 3116 3118 3121 3123 3125 3127 3130 3132 3134 3136 3139 3141 3143 3144 3146 3147 3148 3150 3151 3152 3155 3156 3157
3043 3049 3055 3057 3056 3062 3069 3077 3082 3085 3085 3086 3086 3083 3086 3087 3089 3095 3101 3105 3108 3110 3112 3115 3116 3117 3120 3122 3125 3128 3130 3132 3134 3136 3138 3140 3141 3142 3145 3147 3148 3150 3151 3153
3042 3046 3051 3060 3061 3063 3067 3074 3079 3082 3084 3081 3085 3081 3086 3086 3087 3088 3092 3098 3101 3103 3104 3107 3109 3111 3113 3116 3119 3121 3123 3126 3128 3131 3133 3133 3136 3138 3140 3142 3144 3145 3146 3148
3040 3039 3039 3038 3034 3050 3059 3064 3071 3075 3078 3076 3072 3079 3086 3083 3086 3087 3090 3092 3094 3096 3097 3099 3102 3106 3108 3110 3111 3114 3117 3120 3122 3124 3127 3130 3132 3133 3135 3136 3138 3140 3141 3142
3031 3031 3037 3041 3045 3053 3056 3060 3065 3067 3071 3072 3070 3076 3082 3084 3084 3086 3085 3086 3089 3092 3093 3094 3095 3099 3102 3104 3106 3108 3111 3115 3117 3119 3122 3125 3127 3129 3130 3132 3133 3134 3135 3135
3025 3028 3037 3040 3044 3049 3052 3058 3062 3065 3066 3065 3067 3067 3076 3079 3081 3082 3083 3083 3085 3089 3090 3089 3090 3093 3097 3100 3102 3103 3106 3109 3112 3114 3117 3119 3121 3123 3124 3126 3128 3128 3129 3129
3025 3028 3034 3038 3042 3045 3047 3047 3053 3057 3059 3059 3056 3059 3067 3070 3074 3077 3078 3079 3080 3082 3083 3085 3087 3090 3092 3095 3097 3100 3102 3104 3107 3108 3111 3112 3114 3117 3119 3120 3122 3122 3123 3122
3021 3027 3033 3036 3039 3044 3030 3041 3046 3048 3048 3049 3049 3053 3057 3063 3067 3071 3074 3076 3077 3077 3079 3081 3084 3087 3088 3090 3091 3094 3096 3099 3101 3102 3105 3106 3107 3110 3112 3113 3114 3115 3115 3115
3017 3024 3030 3032 3038 3033 3029 3034 3037 3039 3038 3042 3041 3045 3050 3054 3057 3060 3065 3068 3071 3071 3073 3076 3078 3080 3082 3083 3085 3087 3089 3091 3092 3094 3098 3100 3101 3102 3103 3105 3107 3107 3106 3106
3013 3018 3026 3028 3032 3023 3019 3027 3035 3038 3024 3034 3037 3040 3044 3047 3049 3050 3057 3059 3062 3065 3067 3068 3072 3073 3075 3076 3077 3079 3081 3083 3085 3087 3090 3093 3094 3095 3095 3096 3097 3098 3098 3097
3007 3012 3016 3021 3021 3013 3018 3023 3029 3033 3026 3025 3029 3035 3039 3041 3045 3050 3051 3052 3054 3056 3058 3060 3063 3066 3067 3068 3070 3071 3073 3074 3078 3080 3082 3084 3085 3085 3087 3088 3089 3089 3089 3088
2996 3005 3009 3014 3014 3009 3014 3017 3020 3022 3024 3027 3027 3029 3032 3034 3035 3037 3039 3042 3044 3047 3049 3052 3053 3054 3057 3060 3061 3062 3064 3068 3068 3070 3071 3074 3075 3077 3079 3079 3080 3080 3079 3078
2992 2994 2997 3003 2997 3005 3007 3012 3014 3017 3019 3022 3025 3025 3027 3029 3030 3030 3032 3036 3038 3040 3042 3044 3044 3044 3046 3049 3050 3052 3055 3057 3056 3058 3061 3063 3066 3068 3069 3069 3069 3070 3069 3067
2984 2988 2992 2996 2995 3001 3007 3009 3011 3012 3015 3017 3020 3021 3021 3023 3024 3026 3026 3029 3031 3033 3036 3036 3035 3037 3039 3039 3039 3041 3044 3045 3047 3048 3050 3054 3056 3059 3060 3059 3058 3058 3058 3057
2979 2983 2985 2987 2988 2994 2999 3003 3007 3008 3009 3011 3013 3015 3015 3017 3019 3020 3021 3022 3024 3025 3025 3025 3026 3027 3029 3029 3029 3031 3032 3033 3037 3037 3040 3042 3045 3047 3048 3047 3047 3047 3048 3047
2973 2976 2980 2982 2985 2988 2992 2996 2999 3001 3002 3003 3005 3007 3008 3009 3011 3014 3015 3016 3015 3014 3015 3015 3016 3017 3019 3019 3020 3021 3023 3024 3027 3028 3030 3032 3035 3036 3036 3035 3035 3039 3038 3038